Lexington Weather

Lexington, Massachusetts, USA

76°F
7/25/2024 11:06am 
  • Lexington Conditions: Mostly cloudy
  • Temperature: 76.3°F / 24.6°CWarmer 1.8°F than last hour.
  • Dew Point: 72.1°FIncreased 0.5°Fsince last hour.
  • Relative Humidity: 87%Decreased 4.0% since last hour.
  • Wind: Wind from S S 1 mph, 10-min avg: 3 mph, gust: 8 mph
  • Barometer: 29.96 in Steady
  • Visibility: 10 miles
  • Rain Today: 0.00 in
  •   

Regional Weather Roundup
for Boston, MA

        
000
ASUS41 KBOX 241810
RWRBOX

REGIONAL WEATHER ROUNDUP
NATIONAL WEATHER SERVICE BOSTON/NORTON MA
200 PM EDT WED JUL 24 2024

NOTE:  "FAIR" INDICATES FEW OR NO CLOUDS BELOW 12,000 FEET WITH NO 
SIGNIFICANT WEATHER AND/OR OBSTRUCTIONS TO VISIBILITY.

MAZALL-241900-
EASTERN MASSACHUSETTS
  
CITY           SKY/WX    TMP DP  RH WIND       PRES   REMARKS
BOSTON         CLOUDY    66  65  96 E9        30.18S                  
6HR MIN TEMP:  65; 6HR MAX TEMP:  69; 6HR PCP:  0.01;                

BEVERLY        CLOUDY    69  64  84 E9        30.17F                  
LAWRENCE       CLOUDY    72  64  76 E9        30.19F                  
BEDFORD        CLOUDY    71  63  75 E5        30.16F                  
NORWOOD        CLOUDY    72  69  90 NE5       30.17F                  
MARSHFIELD     CLOUDY    68  63  83 E6        30.18S                  
PLYMOUTH       CLOUDY    70  65  84 E8        30.17S                  
TAUNTON        CLOUDY    73  66  78 E3        30.16F                  
NEW BEDFORD    CLOUDY    72  69  90 E7        30.16F                  
$$

MAZALL-241900-
CAPE COD AND THE ISLANDS
  
CITY           SKY/WX    TMP DP  RH WIND       PRES   REMARKS
FALMOUTH       FOG       66  66 100 E7        30.20S VSB 1            
HYANNIS        FOG       65  65 100 VRB6      30.17S VSB 1/2          
CHATHAM        FOG       65  64  97 SE8       30.19S VSB 1/4          
PROVINCETOWN   CLOUDY    69  67  93 SE10      30.19S                  
NANTUCKET      FOG       66  66 100 SE12      30.17S VSB 1/4          
MARTHAS VNYRD  LGT RAIN  70  69  97 NE7       30.16F FOG              
$$
 
MAZALL-241900-
CENTRAL AND WESTERN MASSACHUSETTS
  
CITY           SKY/WX    TMP DP  RH WIND       PRES   REMARKS
WORCESTER      CLOUDY    69  67  93 E6        30.19S FOG              
6HR MIN TEMP:  66; 6HR MAX TEMP:  69; 6HR PCP: TRACE;                

FITCHBURG      CLOUDY    73  66  78 SE6       30.17F                  
ORANGE           N/A    N/A N/A N/A MISG      30.17F                  
SPRINGFIELD    CLOUDY    74  69  82 SE5       30.12S                  
WESTFIELD      CLOUDY    76  70  82 CALM      30.15S                  
NORTH ADAMS    MOSUNNY   77  66  68 SE9       30.13F                  
PITTSFIELD     MOSUNNY   76  67  73 S7        30.14F                  
$$
 
RIZALL-241900-
RHODE ISLAND
  
CITY           SKY/WX    TMP DP  RH WIND       PRES   REMARKS
PROVIDENCE     CLOUDY    70  68  93 SE7       30.16F                  
6HR MIN TEMP:  68; 6HR MAX TEMP:  70; 6HR PCP: TRACE;                

NEWPORT        LGT RAIN  69  68  96 SE7       30.15F FOG              
BLOCK ISLAND   CLOUDY    68  68 100 NE7         N/A  FOG              
SMITHFIELD     CLOUDY    69  69 100 E5        30.17F                  
WESTERLY       CLOUDY    71  68  90 E8        30.14F                  
$$
 
CTZALL-241900-
CONNECTICUT
  
CITY           SKY/WX    TMP DP  RH WIND       PRES   REMARKS
BRADLEY INTL   CLOUDY    76  69  79 CALM      30.15S                  
6HR MIN TEMP:  73; 6HR MAX TEMP:  77; 6HR PCP:  0.02;                

HARTFORD       CLOUDY    76  70  82 CALM      30.13F                  
PLAINVILLE     CLOUDY    74  71  91 CALM      30.15R                  
BRIDGEPORT     CLOUDY    74  71  91 E14       30.13S                  
DANBURY        CLOUDY    79  71  76 SE6       30.15S                  
GROTON         CLOUDY    74  71  91 E7        30.13F                  
NEW HAVEN      CLOUDY    78  72  81 E10       30.13S                  
CHESTER        CLOUDY    75  73  94 SE7       30.14F                  
MERIDEN        CLOUDY    75  68  78 NE3       30.14S                  
WILLIMANTIC    CLOUDY    72  69  90 NE3       30.15F                  
OXFORD         CLOUDY    72  71  97 CALM      30.17S FOG              
$$

MEZ002-015-021-024-NHZ003-005-008-011-012-014-VTZ005-008-241900-
NORTHERN NEW ENGLAND
  
CITY           SKY/WX    TMP DP  RH WIND       PRES   REMARKS
PORTLAND ME    CLOUDY    71  65  81 S9        30.20F                  
6HR MIN TEMP:  68; 6HR MAX TEMP:  72;                                

BANGOR ME      LGT RAIN  67  66  97 SE7       30.23F FOG              
CONCORD NH     CLOUDY    74  65  73 E7        30.17F                  
MANCHESTER NH  CLOUDY    76  63  64 VRB5      30.16F                  
NASHUA NH      CLOUDY    75  68  78 SE7       30.18S                  
PORTSMOUTH NH  CLOUDY    72  64  76 SE10      30.18F                  
JAFFREY NH     CLOUDY    73  65  75 VRB3      30.19S                  
KEENE NH       CLOUDY    74  66  76 VRB5      30.15                   
BURLINGTON VT  PTSUNNY   84  66  54 S12       30.05F                  
MT. WASHINGTON NOT AVBL                                               
$$

NYZ052-076-241900-
EASTERN NEW YORK
  
CITY           SKY/WX    TMP DP  RH WIND       PRES   REMARKS
ALBANY         PTSUNNY   82  68  62 S13G20    30.10F                  
6HR MIN TEMP:  73; 6HR MAX TEMP:  82;                                

NEW YORK CITY  CLOUDY    76  70  82 NE13      30.11F                  
6HR MIN TEMP:  71; 6HR MAX TEMP:  77; 6HR PCP: TRACE;                

$$
 
ANZALL-241900-
MARINE OBSERVATIONS
  
STATION/POSITION TIME  TEMP    WIND        PRES    VSBY  WAVE
                       AIR SEA DIR/SP/G                  HT/PER
                 (UTC) (F)     (DEG/KT/KT) (MB)    (MI)  (FT/S)
BOSTON BUOY      1750   65 66  100/  4/  4 1022.1F         2/ 6
BUZZARDS BAY     1700   67      80/  7/  8 1021.6S
NANTUCKET SOUND  1750   66 76  100/ 12/ 14 1021.3S         1/ 3
MASS BAY-STELLWA 1604   65 65  130/ 10/ 12 1022.5F  1 7/8  3/ 6
ISLE OF SHOALS   1700   66     140/  6/  7 1022.2S
S OF BLOCK IS    1756      73                N/A           3/ 6
$$

......................KEY.........................
  SKY/WX - SKY CONDITION/PRESENT WEATHER
  TMP    - TEMPERATURE IN FAHRENHEIT
  DWPT   - DEWPOINT IN FAHRENHEIT
  RH     - RELATIVE HUMIDITY IN PERCENT
  WIND   - DIRECTION AND SPEED IN MPH
  PRES   - MEAN SEA LEVEL PRESSURE IN INCHES OF HG
  WCI    - WIND CHILL INDEX
  VSB    - VISIBILITY IN MILES
  HX     - HEAT INDEX
  TC     - TEMPERATURE IN CELSIUS
  VRB    - VARIABLE WIND DIRECTION
  N/A    - NOT AVAILABLE
  
      

Other recent Regional Weather Roundups

Thu Jul 25, 10:10am EDT

Thu Jul 25, 9:10am EDT

Thu Jul 25, 8:10am EDT

Thu Jul 25, 7:10am EDT

Thu Jul 25, 6:10am EDT

Thu Jul 25, 5:10am EDT

Thu Jul 25, 4:10am EDT

Thu Jul 25, 3:10am EDT

Thu Jul 25, 2:10am EDT

Thu Jul 25, 1:10am EDT

Thu Jul 25, 12:10am EDT

Wed Jul 24, 11:10pm EDT

Wed Jul 24, 10:10pm EDT

Wed Jul 24, 9:10pm EDT

Wed Jul 24, 8:10pm EDT

Wed Jul 24, 7:10pm EDT

Wed Jul 24, 6:10pm EDT

Wed Jul 24, 5:10pm EDT

Wed Jul 24, 4:10pm EDT

Wed Jul 24, 3:10pm EDT

Wed Jul 24, 1:10pm EDT

Wed Jul 24, 12:10pm EDT

Wed Jul 24, 11:10am EDT

Wed Jul 24, 10:10am EDT

Wed Jul 24, 9:10am EDT

Wed Jul 24, 8:10am EDT

Wed Jul 24, 7:10am EDT

Wed Jul 24, 6:10am EDT

Wed Jul 24, 5:10am EDT

Wed Jul 24, 4:10am EDT

Wed Jul 24, 3:10am EDT

Wed Jul 24, 2:10am EDT

Wed Jul 24, 1:10am EDT

Wed Jul 24, 12:10am EDT

Tue Jul 23, 11:10pm EDT

Tue Jul 23, 10:10pm EDT

Tue Jul 23, 9:10pm EDT

Tue Jul 23, 8:10pm EDT

Tue Jul 23, 7:10pm EDT

Tue Jul 23, 6:10pm EDT

Tue Jul 23, 5:10pm EDT

Tue Jul 23, 4:10pm EDT

Tue Jul 23, 3:10pm EDT

Tue Jul 23, 2:10pm EDT

Tue Jul 23, 1:10pm EDT

Tue Jul 23, 12:10pm EDT

Tue Jul 23, 11:10am EDT

Tue Jul 23, 10:10am EDT

Tue Jul 23, 10:10am EDT

Tue Jul 23, 9:10am EDT

Tue Jul 23, 8:10am EDT

Tue Jul 23, 7:10am EDT

Tue Jul 23, 6:10am EDT

Tue Jul 23, 5:10am EDT

Tue Jul 23, 4:10am EDT

Tue Jul 23, 3:10am EDT

Tue Jul 23, 2:10am EDT

Tue Jul 23, 1:10am EDT

Tue Jul 23, 12:10am EDT

Mon Jul 22, 11:10pm EDT

Mon Jul 22, 10:10pm EDT

Mon Jul 22, 9:10pm EDT

Mon Jul 22, 8:10pm EDT

Mon Jul 22, 7:10pm EDT

Mon Jul 22, 6:10pm EDT

Mon Jul 22, 5:10pm EDT

Mon Jul 22, 4:10pm EDT

Mon Jul 22, 3:10pm EDT

Mon Jul 22, 2:10pm EDT

Mon Jul 22, 1:10pm EDT

Mon Jul 22, 12:10pm EDT

Mon Jul 22, 11:10am EDT

Mon Jul 22, 10:10am EDT

Mon Jul 22, 9:10am EDT

Mon Jul 22, 8:10am EDT

Mon Jul 22, 7:10am EDT

Mon Jul 22, 6:10am EDT

Mon Jul 22, 5:10am EDT

Mon Jul 22, 4:10am EDT

Mon Jul 22, 3:10am EDT

Mon Jul 22, 2:10am EDT

Mon Jul 22, 1:10am EDT

Mon Jul 22, 12:10am EDT

Sun Jul 21, 11:10pm EDT

Sun Jul 21, 10:10pm EDT

Sun Jul 21, 9:10pm EDT

Sun Jul 21, 8:10pm EDT

Sun Jul 21, 7:10pm EDT

Sun Jul 21, 6:10pm EDT

Sun Jul 21, 5:10pm EDT

Sun Jul 21, 4:10pm EDT

Sun Jul 21, 3:10pm EDT

Sun Jul 21, 2:10pm EDT

Sun Jul 21, 1:10pm EDT

Sun Jul 21, 12:10pm EDT

Sun Jul 21, 11:10am EDT

Sun Jul 21, 10:10am EDT

Sun Jul 21, 9:10am EDT

Sun Jul 21, 8:10am EDT

Sun Jul 21, 7:10am EDT

Sun Jul 21, 6:10am EDT

Sun Jul 21, 5:10am EDT

Sun Jul 21, 4:10am EDT

Sun Jul 21, 3:10am EDT

Sun Jul 21, 2:10am EDT

Sun Jul 21, 1:10am EDT

Sun Jul 21, 12:10am EDT

Sat Jul 20, 11:10pm EDT

Sat Jul 20, 10:10pm EDT

Sat Jul 20, 9:10pm EDT

Sat Jul 20, 8:10pm EDT

Sat Jul 20, 7:10pm EDT

Sat Jul 20, 6:10pm EDT

Sat Jul 20, 5:10pm EDT

Sat Jul 20, 4:10pm EDT

Sat Jul 20, 3:10pm EDT

Sat Jul 20, 2:10pm EDT

Sat Jul 20, 1:10pm EDT

Sat Jul 20, 12:10pm EDT

Sat Jul 20, 11:10am EDT

Sat Jul 20, 10:10am EDT

Sat Jul 20, 9:10am EDT

Sat Jul 20, 8:10am EDT

Sat Jul 20, 7:10am EDT

Sat Jul 20, 6:10am EDT

Sat Jul 20, 5:10am EDT

Sat Jul 20, 4:10am EDT

Sat Jul 20, 3:10am EDT

Sat Jul 20, 2:10am EDT

Sat Jul 20, 1:10am EDT

Sat Jul 20, 12:10am EDT

Fri Jul 19, 11:10pm EDT

Fri Jul 19, 10:10pm EDT

Fri Jul 19, 9:10pm EDT

Fri Jul 19, 8:10pm EDT

Fri Jul 19, 7:10pm EDT

Fri Jul 19, 6:10pm EDT

Fri Jul 19, 5:10pm EDT

Fri Jul 19, 4:10pm EDT

Fri Jul 19, 3:10pm EDT

Fri Jul 19, 2:10pm EDT

Fri Jul 19, 1:10pm EDT

Fri Jul 19, 12:10pm EDT

Fri Jul 19, 11:10am EDT

Fri Jul 19, 10:10am EDT

Fri Jul 19, 9:10am EDT

Fri Jul 19, 8:10am EDT

Fri Jul 19, 7:10am EDT

Fri Jul 19, 6:10am EDT

Fri Jul 19, 5:10am EDT

Fri Jul 19, 4:10am EDT

Fri Jul 19, 3:10am EDT

Fri Jul 19, 2:10am EDT

Fri Jul 19, 1:10am EDT

Fri Jul 19, 12:10am EDT

Thu Jul 18, 11:10pm EDT

Thu Jul 18, 10:10pm EDT

Thu Jul 18, 9:10pm EDT

Thu Jul 18, 8:10pm EDT

Thu Jul 18, 7:10pm EDT

Thu Jul 18, 6:10pm EDT

Thu Jul 18, 5:10pm EDT

Thu Jul 18, 4:10pm EDT

Thu Jul 18, 3:10pm EDT

Thu Jul 18, 2:10pm EDT

Thu Jul 18, 1:10pm EDT

Thu Jul 18, 12:10pm EDT

Thu Jul 18, 11:10am EDT